Wind_Speed
21 20 19 17 14 10 9 9 8 7 7 6 6 6 5 5 5 4 3 3 2 2 2 4 5 5 5 5 5 5 6 6 7 7 8 8 8 9 10 11 12 13
22 22 21 20 17 14 12 11 9 9 8 8 7 7 8 7 7 6 5 4 3 3 3 4 6 6 6 6 6 7 7 7 7 7 7 8 8 8 9 10 11 12
24 23 23 22 20 16 14 13 11 10 10 10 10 10 10 9 8 7 6 5 4 4 4 6 7 7 7 7 7 8 8 9 9 9 9 9 9 9 9 10 11 12
25 25 24 22 21 19 16 15 13 12 13 12 12 12 12 11 10 9 8 7 6 6 6 8 8 8 8 8 8 9 10 11 11 11 11 11 11 11 11 12 12 12
27 25 24 23 21 20 19 17 15 15 14 14 14 14 14 13 12 11 10 9 9 8 9 10 10 10 10 10 10 11 12 13 13 14 13 13 13 13 14 14 15 15
30 29 27 25 23 22 21 19 17 17 16 16 16 16 15 14 13 12 11 11 10 10 11 11 12 12 11 12 12 13 14 15 15 16 16 16 16 16 16 17 17 17
30 32 30 28 27 25 24 22 19 18 18 18 17 17 17 16 15 14 13 13 12 12 13 12 13 13 13 13 14 15 16 17 17 18 18 18 18 19 19 19 20 20
29 33 33 32 31 29 27 25 22 21 20 20 20 20 19 18 17 16 16 15 15 15 15 14 14 14 14 14 15 16 17 18 19 19 20 21 21 22 22 22 22 22
28 31 34 36 35 32 31 28 25 23 22 22 22 21 21 20 19 18 18 18 18 18 17 16 16 16 15 16 17 17 18 18 19 20 21 22 23 24 24 24 24 24
31 31 34 38 39 36 33 31 29 26 25 25 24 23 23 22 21 21 20 20 20 19 18 17 17 17 17 17 18 18 19 19 19 20 21 22 23 24 25 26 27 27
37 36 35 37 40 40 37 34 32 29 27 27 26 25 25 24 23 24 23 22 22 20 19 19 18 18 18 18 18 19 19 20 21 21 22 23 23 24 25 26 27 28
40 41 39 38 40 42 41 37 34 32 29 29 28 27 26 25 25 25 24 23 22 21 20 19 19 18 18 18 18 18 19 21 22 22 23 24 25 26 27 28 28 28
37 40 41 41 42 44 43 39 36 34 32 31 30 28 26 26 26 26 25 23 21 21 20 19 19 18 17 16 17 18 20 21 22 23 24 26 27 29 30 30 30 29
33 36 38 41 44 45 45 42 36 35 36 34 32 30 28 27 27 26 24 23 22 21 20 19 18 17 16 16 18 19 20 21 22 24 26 28 30 31 31 31 30 30
28 32 35 38 41 43 45 44 40 38 38 37 34 31 28 27 27 26 24 23 22 21 20 18 16 15 16 17 19 19 20 22 23 25 28 29 30 31 30 30 30 30
23 27 31 34 37 39 41 43 45 44 41 39 36 31 29 28 27 26 24 23 22 21 19 17 15 15 17 18 20 20 21 23 24 26 27 28 29 30 31 31 30 30
22 24 27 31 33 36 37 41 46 46 40 37 34 31 29 28 26 25 24 23 22 20 17 16 15 16 18 19 21 21 22 24 25 25 26 26 28 29 31 31 31 31
23 24 25 28 31 34 36 39 43 42 37 34 32 31 30 28 27 26 24 23 21 19 16 15 15 16 19 20 21 22 23 24 24 24 25 26 27 29 30 31 32 32
24 25 25 26 30 34 35 37 39 39 37 34 32 31 30 28 27 26 24 22 20 18 16 15 15 18 20 20 21 22 23 24 24 24 25 26 27 29 30 31 32 33
26 27 26 26 29 32 33 34 36 37 36 34 33 31 30 28 27 25 23 21 18 17 15 15 16 18 19 19 20 21 23 24 24 25 26 27 28 30 31 32 32 33
27 28 27 26 27 30 31 32 34 36 36 35 34 32 30 28 26 23 20 18 17 16 16 16 17 18 18 18 19 21 23 24 25 26 27 29 30 31 32 33 33 33
26 28 28 26 26 28 30 31 34 38 39 37 34 31 29 26 23 20 18 17 17 17 16 16 16 17 17 18 20 21 23 24 25 28 29 31 32 33 34 35 34 34
26 28 27 26 27 28 29 31 36 41 41 38 34 31 27 23 19 17 16 16 16 17 16 16 15 16 16 18 19 21 23 25 27 29 32 34 35 36 37 37 36 35
26 27 25 25 27 28 29 33 39 41 38 35 32 28 24 21 18 16 15 15 16 16 16 14 14 14 16 18 19 21 23 26 29 31 34 36 38 40 40 40 39 37
25 25 23 23 26 29 31 35 39 37 33 31 28 24 21 19 16 15 14 15 15 15 14 13 12 13 16 18 19 21 24 27 30 33 36 39 41 42 43 42 41 39
22 22 21 21 25 29 32 36 40 38 34 31 25 21 18 14 13 13 13 13 13 13 12 11 12 14 17 18 20 22 25 28 31 35 38 41 43 44 45 44 42 40
Wind_Direction
217 222 229 234 235 229 228 228 223 224 230 238 245 244 237 233 230 220 211 215 239 279 328 346 341 334 331 332 331 329 329 326 326 325 319 315 312 305 300 293 287 280
219 221 226 233 235 232 230 231 230 230 231 234 240 242 243 245 245 237 229 229 246 276 313 328 324 319 320 324 326 329 335 335 335 332 324 319 314 307 303 298 294 289
223 221 223 228 231 231 230 231 230 232 233 233 235 237 241 246 248 247 244 247 259 278 298 307 307 304 307 315 322 325 330 334 335 335 331 327 323 319 311 305 301 296
228 225 223 225 229 229 229 231 230 229 230 232 235 237 239 240 243 244 247 254 265 278 290 297 299 300 301 309 318 321 324 328 329 329 328 323 321 319 316 312 308 304
234 232 228 227 230 230 230 230 230 229 230 232 236 241 243 242 242 243 245 250 259 272 282 292 298 298 300 309 315 318 323 326 326 326 324 321 318 316 316 315 314 313
240 239 236 233 234 234 233 232 231 231 231 233 236 242 246 247 246 246 246 248 253 263 273 282 290 292 294 302 307 311 317 320 321 322 322 322 321 320 318 317 315 315
245 242 240 239 238 239 238 235 234 233 233 233 236 240 245 245 246 247 247 250 252 257 265 271 278 281 282 289 297 302 307 311 313 316 318 319 321 322 322 320 318 317
249 246 243 242 240 241 241 238 236 235 234 234 234 237 242 242 243 244 244 247 251 255 261 266 269 270 272 278 286 292 298 303 307 310 313 315 317 319 320 320 320 319
251 252 249 245 243 242 242 240 238 236 235 235 234 235 238 238 238 239 240 243 247 252 258 264 266 265 267 273 280 285 291 297 301 305 309 311 312 314 315 316 316 316
246 253 252 248 245 243 242 241 240 237 236 236 235 235 236 235 233 233 235 238 242 248 255 260 262 262 264 270 276 283 289 294 298 302 304 306 308 309 310 310 311 312
240 246 250 250 247 244 243 242 240 238 238 237 235 235 234 232 231 231 232 236 240 246 252 256 257 257 260 268 275 282 289 294 297 300 301 302 303 303 305 306 308 309
242 243 246 249 250 246 243 242 241 239 238 238 236 234 233 231 230 231 233 236 240 245 250 253 253 254 259 267 276 283 289 293 295 298 300 301 302 304 306 308 309 308
252 250 249 249 250 248 244 242 241 240 238 238 237 233 231 229 229 231 233 237 241 245 248 249 250 256 264 273 282 287 289 292 294 297 300 302 305 308 310 310 310 309
263 260 256 253 251 250 247 243 242 242 238 237 235 231 228 227 227 229 233 236 240 243 245 248 252 261 272 281 287 290 291 293 296 299 303 306 309 310 311 311 310 309
269 266 263 258 254 252 249 245 243 241 235 232 232 228 224 223 224 227 231 234 236 238 241 247 256 266 277 286 290 291 293 297 301 304 307 310 311 312 313 312 312 310
270 268 267 264 260 256 253 248 244 240 232 228 227 223 219 218 219 224 227 230 232 234 239 248 258 269 280 288 291 293 297 301 305 308 311 313 314 315 315 314 313 312
276 270 267 267 265 262 257 250 243 236 228 223 220 216 213 214 217 220 223 226 229 233 239 248 259 272 284 289 291 295 300 303 307 310 313 316 318 319 318 316 315 312
277 274 270 267 266 263 258 250 242 232 225 221 217 211 210 212 214 217 219 222 227 233 240 249 263 278 285 288 291 296 300 302 306 309 313 317 319 320 320 318 316 313
273 273 271 269 266 262 257 251 241 229 221 219 215 212 211 211 211 212 215 221 227 234 241 252 268 278 283 286 290 295 298 300 304 307 310 314 317 320 320 319 316 313
274 273 273 270 266 261 256 250 239 225 216 214 214 212 211 209 208 210 214 222 229 236 245 257 270 277 281 284 290 295 298 301 303 305 308 312 315 319 320 319 317 314
276 275 275 271 265 259 253 246 234 222 215 211 211 211 210 209 209 212 217 223 231 239 249 261 271 277 279 285 293 299 302 304 306 307 310 312 315 318 319 318 317 315
276 275 274 271 265 256 248 239 228 218 212 208 207 207 208 208 209 213 220 226 233 243 254 266 273 275 279 290 299 304 306 309 310 311 313 315 317 319 319 318 318 316
275 273 272 270 262 254 247 236 221 212 207 204 202 202 203 204 207 212 220 229 239 251 261 269 271 275 287 300 307 310 311 312 313 314 315 316 318 319 319 319 319 318
274 274 274 270 261 254 248 233 214 205 204 201 198 197 198 199 204 210 221 237 249 259 266 268 271 286 302 309 310 312 313 314 314 315 315 317 318 319 319 319 319 319
276 275 274 270 261 254 244 225 209 202 201 196 191 193 195 198 208 222 235 246 253 260 265 270 284 302 309 310 311 313 313 313 314 315 315 317 318 318 319 319 320 320
276 274 274 270 261 252 239 220 206 199 192 187 188 196 200 206 221 231 238 243 249 259 270 282 299 307 308 309 312 314 313 313 314 314 315 317 317 317 318 318 319 319
Height
1521 1523 1524 1525 1526 1527 1527 1527 1528 1528 1529 1529 1530 1531 1531 1532 1532 1533 1533 1534 1534 1534 1534 1534 1533 1533 1533 1533 1533 1533 1532 1532 1531 1531 1530 1530 1530 1529 1529 1529 1529 1529
1519 1521 1522 1523 1524 1525 1526 1526 1527 1527 1528 1528 1529 1530 1530 1531 1531 1532 1533 1533 1533 1533 1533 1533 1533 1533 1533 1533 1532 1532 1532 1531 1531 1530 1530 1529 1529 1529 1529 1528 1528 1527
1517 1518 1520 1521 1522 1524 1524 1525 1525 1526 1526 1527 1527 1528 1528 1529 1530 1531 1531 1532 1532 1532 1532 1532 1532 1532 1532 1532 1532 1531 1531 1530 1530 1530 1529 1529 1528 1528 1528 1528 1527 1526
1515 1516 1517 1519 1521 1522 1523 1523 1524 1524 1525 1525 1526 1526 1526 1527 1528 1528 1529 1530 1530 1531 1531 1531 1531 1531 1531 1531 1531 1530 1530 1529 1529 1529 1528 1528 1527 1527 1526 1526 1526 1525
1515 1516 1517 1518 1519 1520 1521 1522 1522 1523 1523 1524 1525 1525 1526 1526 1526 1526 1527 1527 1528 1528 1529 1529 1529 1529 1529 1529 1529 1528 1528 1527 1527 1527 1527 1526 1526 1525 1525 1524 1524 1523
1515 1515 1516 1517 1518 1518 1519 1520 1521 1521 1521 1523 1524 1524 1525 1525 1525 1525 1526 1526 1526 1526 1526 1527 1527 1527 1527 1528 1527 1527 1526 1526 1525 1525 1525 1524 1524 1524 1523 1523 1522 1521
1511 1513 1514 1515 1516 1516 1517 1518 1519 1519 1519 1520 1521 1522 1523 1524 1524 1525 1525 1525 1525 1525 1525 1525 1525 1526 1526 1526 1526 1525 1525 1524 1524 1523 1523 1523 1522 1522 1521 1521 1520 1520
1509 1511 1512 1513 1513 1514 1514 1515 1516 1517 1517 1518 1518 1519 1520 1521 1523 1523 1523 1524 1523 1523 1524 1524 1524 1524 1524 1524 1524 1524 1523 1523 1522 1522 1521 1521 1520 1520 1519 1519 1518 1518
1508 1508 1509 1510 1510 1510 1511 1512 1514 1514 1515 1515 1515 1516 1517 1518 1520 1521 1521 1522 1522 1522 1522 1522 1522 1522 1522 1522 1522 1522 1521 1521 1520 1520 1519 1519 1518 1518 1517 1517 1516 1515
1504 1504 1505 1506 1507 1507 1508 1509 1510 1511 1512 1512 1513 1513 1514 1515 1516 1517 1518 1518 1519 1520 1520 1520 1520 1520 1520 1520 1519 1519 1519 1518 1518 1518 1517 1517 1516 1516 1515 1514 1513 1512
1499 1499 1500 1501 1502 1504 1504 1505 1506 1508 1509 1510 1511 1511 1512 1512 1513 1514 1514 1515 1516 1517 1518 1518 1518 1518 1518 1517 1517 1516 1516 1516 1515 1515 1515 1514 1514 1514 1513 1512 1511 1510
1494 1495 1495 1496 1498 1499 1500 1502 1503 1505 1506 1507 1508 1509 1509 1510 1511 1511 1512 1513 1514 1515 1515 1515 1515 1515 1515 1515 1514 1514 1513 1513 1512 1512 1512 1512 1511 1511 1510 1509 1508 1507
1489 1491 1492 1493 1493 1495 1497 1498 1499 1501 1503 1504 1505 1506 1507 1508 1508 1509 1510 1511 1512 1512 1512 1512 1512 1512 1512 1512 1511 1511 1510 1510 1509 1509 1509 1509 1508 1507 1506 1506 1505 1504
1485 1486 1488 1489 1490 1492 1493 1495 1495 1496 1497 1499 1501 1502 1503 1504 1506 1507 1508 1509 1510 1510 1510 1510 1510 1510 1509 1509 1509 1508 1507 1507 1506 1506 1505 1505 1504 1503 1503 1502 1501 1501
1481 1482 1483 1485 1486 1487 1489 1491 1492 1490 1491 1494 1496 1498 1499 1501 1502 1504 1506 1507 1507 1507 1507 1508 1508 1507 1507 1507 1507 1506 1505 1504 1503 1503 1502 1501 1501 1500 1499 1499 1498 1497
1478 1478 1479 1480 1481 1482 1485 1487 1487 1485 1486 1489 1491 1494 1496 1497 1499 1501 1503 1504 1504 1504 1505 1505 1505 1505 1505 1505 1505 1504 1503 1502 1501 1500 1499 1498 1497 1496 1496 1495 1494 1493
1475 1475 1475 1476 1477 1478 1480 1482 1482 1483 1485 1487 1489 1491 1493 1494 1496 1498 1500 1501 1502 1502 1502 1502 1503 1503 1503 1503 1503 1502 1501 1499 1498 1497 1496 1495 1494 1493 1492 1491 1490 1489
1473 1472 1472 1472 1473 1475 1476 1477 1479 1482 1486 1488 1489 1490 1490 1491 1492 1494 1496 1498 1499 1499 1499 1499 1500 1501 1501 1501 1501 1500 1499 1497 1496 1494 1493 1492 1491 1490 1489 1487 1486 1485
1471 1470 1469 1470 1470 1471 1473 1475 1477 1480 1483 1485 1488 1488 1488 1488 1489 1491 1493 1494 1496 1496 1496 1497 1497 1498 1499 1499 1498 1498 1497 1495 1494 1492 1490 1489 1488 1487 1486 1484 1483 1481
1467 1467 1467 1467 1468 1469 1470 1472 1474 1477 1480 1483 1485 1486 1487 1487 1487 1489 1490 1491 1493 1494 1494 1494 1495 1495 1496 1496 1496 1495 1494 1493 1491 1489 1488 1486 1485 1484 1483 1481 1480 1478
1464 1464 1463 1463 1464 1465 1467 1469 1471 1473 1476 1479 1481 1482 1484 1485 1486 1487 1488 1490 1491 1492 1492 1492 1492 1493 1493 1493 1493 1492 1491 1490 1488 1486 1484 1483 1482 1481 1479 1478 1476 1474
1461 1460 1460 1460 1461 1462 1464 1465 1467 1469 1471 1473 1477 1480 1482 1483 1484 1485 1487 1488 1490 1490 1490 1490 1490 1490 1490 1490 1490 1489 1488 1486 1485 1483 1481 1479 1478 1477 1475 1473 1472 1470
1457 1456 1456 1457 1458 1459 1461 1462 1464 1466 1467 1469 1473 1477 1479 1481 1482 1483 1485 1487 1488 1488 1488 1488 1488 1488 1488 1487 1487 1486 1485 1483 1481 1479 1476 1474 1473 1472 1470 1469 1467 1465
1453 1452 1453 1454 1455 1457 1459 1460 1462 1463 1465 1468 1471 1475 1477 1479 1481 1482 1483 1484 1486 1486 1486 1486 1486 1486 1485 1485 1484 1483 1482 1480 1477 1475 1472 1470 1468 1466 1465 1463 1462 1460
1449 1449 1450 1451 1453 1454 1455 1457 1460 1463 1466 1469 1472 1474 1476 1477 1478 1479 1481 1482 1484 1484 1484 1484 1484 1484 1483 1482 1482 1481 1479 1477 1474 1471 1468 1466 1463 1461 1459 1458 1456 1454
1446 1446 1447 1449 1450 1451 1453 1455 1457 1461 1464 1467 1470 1472 1474 1475 1476 1478 1479 1481 1482 1482 1482 1482 1482 1481 1481 1480 1480 1479 1477 1474 1471 1468 1464 1461 1459 1456 1454 1452 1450 1449